Find Starlink 4021

NORAD ID: 53149 Int'l Des: 2022-083 Owner: SPXS Country: US Constellation: starlink operational
LEOCIRCULAR

リアルタイム位置

3D地球を読み込み中...

Starlink 4021について

説明を読み込み中...

次回通過

Passes for default location (London). Set your location on the main map for personalized predictions.

高度履歴

Loading altitude history...

軌道要素

1 53149U 22083T 26122.44510807 -.00000186 00000-0 64065-5 0 9991
2 53149 53.2177 283.0049 0001368 92.3247 267.7901 15.08836826209471
Epoch: May 2, 2026 • Age: 8 hours

現在のステータス

高度 559.1 km
速度 7.58 km/s
衛星直下点 -52.96°S, 66.91°E
打ち上げ日 Jul 17, 2022
運用期間 3.7 years
タイプ internet

技術仕様

分類 Payload
質量 297.00 kg
乾燥質量 275.00 kg
総質量 297.00 kg
長さ 0.20 m
直径 2.80 m
スパン 9.00 m
形状 Box + pan
製造者 SPXS
バスタイプ Starlink
フェーズステータス In Orbit
所有者/国 SPXS/US

Most Searched